Flag for U.S.A. Weather past 2 weeks in Vista, California, U.S.A.

Now
69 °F

Fog.


Feels Like: 69 °F
Forecast: 66 / 79 °F
Wind: No wind

Location: McClellan-Palomar Airport

Current Time: Jul 26, 2014 at 3:13:30 AM

Latest Report: Jul 26, 2014 at 1:53 AM


Visibility: 5 mi

Pressure: 29.90 "Hg

Humidity: 87%

Dew point: 65 °F

Location of VistaLocation

Historic Weather in Vista — Graph

°F

Vista temperature yesterday

Maximum temperature yesterday: 76 °F (at 3:53 PM)
Minimum temperature yesterday: 69 °F (at 9:53 PM)
Average temperature yesterday: 72 °F

Past Weeks' High & Low Weather Summary

 TemperatureHumidityPressure
High79 °F (Jul 24, 1:53 PM)97% (Jul 24, 6:53 AM)30.05 "Hg (Jul 24, 6:53 AM)
Low64 °F (Jul 23, 5:53 AM)53% (Jul 17, 12:53 PM)29.74 "Hg (Jul 24, 5:53 PM)
Average70 °F75%29.95 "Hg
* Reported Jul 11 1:53 AM — Jul 26 1:53 AM, Vista, Weather by CustomWeather, © 2014

Note: Actual official high and low records may vary slightly from our data, if they occured in-between our weather recording intervals... More about our weather records

Advertising

Vista weather history for previous 24 hours

 ConditionsComfort  
Time TempWeatherWind HumidityBarometerVisibility
1:53 AM
Jul 26
69 °FFog.No wind87%29.90 "Hg5 mi
12:53 AM69 °FFog.No wind87%29.91 "Hg5 mi
11:53 PM
Jul 25
69 °FFog.No wind87%29.91 "Hg6 mi
10:53 PM69 °FPassing clouds.No wind87%29.91 "Hg7 mi
9:53 PM69 °FLow clouds.No wind87%29.90 "Hg7 mi
8:53 PM70 °FClear.3 mph84%29.89 "Hg7 mi
7:53 PM71 °FSunny.3 mph81%29.88 "Hg8 mi
6:53 PM72 °FSunny.3 mph76%29.87 "Hg9 mi
5:53 PM72 °FSunny.6 mph76%29.87 "Hg9 mi
4:53 PM74 °FSunny.6 mph74%29.88 "Hg9 mi
3:53 PM76 °FSunny.6 mph69%29.88 "Hg10 mi
2:53 PM74 °FSunny.3 mph74%29.89 "Hg9 mi
1:53 PM74 °FSunny.6 mph74%29.90 "Hg9 mi
12:53 PM74 °FSunny.8 mph74%29.90 "Hg10 mi
11:53 AM74 °FBroken clouds.7 mph74%29.90 "Hg10 mi
10:53 AM74 °FSunny.No wind71%29.89 "Hg10 mi
9:53 AM73 °FSunny.No wind74%29.88 "Hg10 mi
8:53 AM72 °FScattered clouds.No wind76%29.88 "Hg10 mi
7:53 AM71 °FPassing clouds.No wind76%29.87 "Hg10 mi
7:03 AM70 °FScattered clouds.No wind78%29.87 "Hg10 mi
6:53 AM70 °FPassing clouds.No wind79%29.86 "Hg10 mi
5:53 AM70 °FOvercast.3 mph79%29.86 "Hg10 mi
4:53 AM70 °FOvercast.5 mph81%29.85 "Hg10 mi
3:53 AM70 °FOvercast.7 mph81%29.85 "Hg10 mi
Weather by CustomWeather, © 2014

See weather overviewHow to use our weather pages